Regional Weather Roundup
Issued by NWS Bismarck, ND

Home | Current Version | Previous Version | Text Only | Print | Product List | Glossary On
Versions: 1 2 3 4 5 6 7 8 9 10 11 12 13 14 15 16 17 18 19 20 21 22 23 24 25 26 27 28 29 30 31 32 33 34 35 36 37 38 39 40 41 42 43 44 45 46 47 48 49 50
000
ASUS43 KBIS 040110
RWRBIS

NWR BROADCAST TEXT
NATIONAL WEATHER SERVICE BISMARCK ND
800 PM CDT TUE MAY 03 2016

NOTE: "FAIR" INDICATES FEW OR NO CLOUDS BELOW 12,000 FEET WITH NO
SIGNIFICANT WEATHER AND/OR OBSTRUCTIONS TO VISIBILITY.


CITY           SKY/WX    TMP DP  RH WIND       PRES   REMARKS
WILLISTON      SUNNY     77  39  25 NE8       30.03S
MINOT          CLEAR     73  24  16 N14       30.01S
MINOT AFB      CLEAR     69  28  21 N12       30.00S
BISMARCK       CLEAR     70  32  24 N14       29.99R
DICKINSON      CLEAR     69  39  33 NE12      30.03R
GARRISON         N/A     71  30  21 NE10G20   30.01R
HETTINGER ARPT CLEAR     71  38  29 N13       30.05S
JAMESTOWN      CLEAR     63  25  23 N20       29.95R
BEACH          FAIR      72  37  28 N8        30.09S
CARRINGTON     FAIR      63  25  23 N22G30    30.00R
HAZEN          FAIR      70  32  24 NE9G20    30.03R
LINTON         FAIR      68  36  30 N15G24    30.00R
MANDAN         FAIR      68  32  26 N14G23    30.01R
OAKES            N/A    N/A N/A N/A MISG        N/A
RUGBY          FAIR      63  28  27 NE14      30.01R
STANLEY        FAIR      72  37  28 N12       30.06S
TIOGA          FAIR      72  36  26 N13       30.09S
WATFORD CITY   FAIR      73  39  29 NE12      30.04S
$$

CITY           SKY/WX    TMP DP  RH WIND       PRES   REMARKS
GRAND FORKS    CLEAR     60  33  36 N20       29.94R
GRAND FORKS AF CLEAR     60  31  33 NE17G25   29.95R
DEVILS LAKE    CLEAR     61  25  25 N18       30.00R
FARGO          CLEAR     64  26  23 N25G33    29.90R
CANDO          FAIR      59  27  29 NE13      30.03S
CAVALIER       FAIR      59  32  36 N20G26    29.99R
GRAFTON        FAIR      59  32  36 N20G28    29.98R
GWINNER        FAIR      64  27  24 N23G31    29.92R
LANGDON        FAIR      55  32  41 N16       30.02R
ROLLA          FAIR      57  23  26 N15       30.04R
WALHALLA       FAIR      57  34  41 N13       30.01R
$$

CITY           SKY/WX    TMP DP  RH WIND       PRES   REMARKS
ABERDEEN       CLEAR     67  28  23 N17       29.92R
MOBRIDGE       CLEAR     71  40  32 N16       29.94R
BUFFALO          N/A     73  37  27 N10       30.01S
RAPID CITY     CLEAR     69  39  33 N12       30.07S
GLASGOW        SUNNY     77  40  26 VRB5      30.03S
SIDNEY         SUNNY     75  39  27 NE8       30.03S
WOLF POINT     SUNNY     79  45  29 SW3       30.02F
GLENDIVE       SUNNY     75  39  27 NE7       30.08S
MILES CITY     SUNNY     77  35  21 W6        30.05F
BAKER          SUNNY     74  36  25 NE10      30.08S
$$

CITY           SKY/WX    TMP DP  RH WIND       PRES   REMARKS
BILLINGS       SUNNY     74  34  23 E9        30.09F
GREAT FALLS    SUNNY     76  36  23 SE7       30.03F
REGINA         MOSUNNY   75  39  27 E9        30.00F
ESTEVAN        MOSUNNY   73  39  29 NE8       30.03F
$$




USA.gov is the U.S. government's official web portal to all federal, state and local government web resources and services.